Location: Peterborough
(44.3091°N, 78.3197°W)
Time: 18:01:52
(UTC-04:00)

Transit 2A Rocket - Pass Details

Date: 28 March 2023
Orbit: 584 x 914 km, 66.7° (Epoch: 04 June)

Event Time Altitude Azimuth Distance (km) Brightness Sun altitude
Rises 20:52:24 0° 325° (NW) 3,557 9.4 -14.2°
Reaches altitude 10° 20:54:59 10° 322° (NW) 2,606 8.7 -14.7°
Maximum altitude 21:00:58 60° 244° (WSW) 1,015 5.8 -15.7°
Drops below altitude 10° 21:06:39 10° 166° (SSE) 2,471 7.3 -16.6°
Enters shadow 21:06:54 - 165° (SSE) 2,565 7.4 -16.7°
Sets 21:09:03 0° 162° (SSE) 3,359 - -17.0°
